Vorticity
nan nan nan nan nan nan nan nan nan nan nan nan nan nan nan nan nan nan nan nan nan nan nan nan nan nan nan nan nan nan nan nan nan nan nan nan nan nan nan nan nan nan nan nan nan nan nan nan nan nan nan nan nan nan nan nan nan nan nan nan nan nan nan nan nan nan nan nan nan
nan 8 8 7 6 6 7 9 10 9 8 8 9 10 9 9 10 9 8 7 7 7 8 9 10 10 11 12 14 13 13 13 12 11 12 10 9 9 9 10 10 9 9 9 8 7 9 9 6 4 5 8 11 11 10 10 12 12 12 7 6 11 15 16 14 14 13 10 nan
nan 10 10 9 7 6 5 7 8 8 7 7 8 9 9 9 10 10 10 8 7 7 6 8 10 11 12 13 12 13 13 13 13 11 11 12 12 10 8 9 11 10 9 9 8 6 7 8 6 6 5 7 9 9 10 12 11 12 15 10 6 8 10 14 16 15 13 14 nan
nan 12 11 11 9 6 4 6 7 8 8 9 9 9 9 9 9 9 9 9 9 8 6 5 7 10 12 14 12 12 13 13 12 11 10 11 12 11 10 9 9 10 10 9 9 7 7 5 5 7 9 9 10 9 9 12 12 10 12 13 10 10 8 10 13 13 13 13 nan
nan 14 13 13 12 10 7 8 8 8 8 9 9 8 8 9 9 8 8 8 8 7 7 5 5 7 9 13 13 12 13 14 12 10 11 11 12 12 11 10 9 9 9 10 10 9 9 4 2 7 11 10 9 10 10 11 10 7 7 10 11 11 11 8 10 11 11 10 nan
nan 12 12 13 14 12 10 11 12 10 9 9 7 5 3 4 6 6 6 6 8 9 10 10 8 8 9 11 12 12 13 14 13 12 11 11 11 12 12 11 9 8 8 10 11 10 10 5 2 6 8 10 11 11 12 10 8 7 5 5 8 9 11 9 9 10 11 10 nan
nan 9 10 11 11 10 10 9 13 12 11 11 10 7 4 2 3 4 4 5 8 11 13 15 12 9 9 10 10 10 11 11 12 13 11 11 11 11 11 11 11 9 8 9 10 9 9 6 3 6 7 8 10 15 14 10 8 7 6 3 5 9 12 10 8 12 15 13 nan
nan 9 9 10 10 9 8 7 8 9 9 7 9 9 8 6 6 6 7 7 8 9 10 12 12 10 9 8 8 8 9 10 10 11 11 11 11 11 11 11 11 10 9 9 9 8 7 5 5 7 7 7 9 13 15 12 8 7 6 3 2 6 8 11 10 12 15 16 nan
nan 10 10 11 10 9 8 8 7 7 6 5 7 8 9 9 9 10 10 11 10 9 8 9 12 12 11 9 8 8 9 10 10 10 11 11 11 10 10 12 12 11 11 11 11 10 5 3 4 6 6 6 7 10 14 14 10 7 6 5 3 4 5 8 9 10 11 14 nan
nan 8 9 10 9 9 9 11 11 10 8 8 9 9 9 9 10 11 11 12 10 8 7 8 11 12 12 11 10 9 8 10 12 12 11 11 11 10 9 10 12 11 11 10 12 12 8 4 5 4 3 5 7 9 11 13 12 8 4 5 7 7 4 5 9 10 10 11 nan
nan 8 8 8 9 10 11 12 13 12 11 10 10 11 11 12 12 11 10 9 8 7 7 8 10 11 11 11 11 11 9 9 10 12 12 12 12 11 10 9 11 10 10 9 10 11 9 8 9 7 3 2 8 10 12 12 12 10 4 3 8 8 6 5 7 9 10 12 nan
nan 9 9 8 9 10 11 11 12 12 11 10 11 11 12 13 12 11 10 8 8 9 11 11 12 12 11 11 12 12 11 11 10 10 11 12 12 12 11 10 10 10 10 9 7 7 9 9 10 10 7 2 4 9 12 12 11 11 8 5 6 7 8 6 5 6 9 12 nan
nan 9 9 9 11 11 11 11 10 10 10 10 11 11 11 11 12 12 12 10 10 10 12 14 15 14 12 10 11 11 12 12 11 10 10 10 11 12 11 11 11 11 10 10 8 6 7 10 11 11 10 5 2 5 9 11 10 11 10 9 7 6 7 7 6 6 7 9 nan
nan 9 9 10 11 11 10 9 9 9 9 10 10 11 11 11 12 12 12 11 11 11 11 13 14 14 13 12 11 11 11 11 12 11 10 9 10 11 10 11 11 10 10 11 11 9 7 8 10 10 11 8 4 4 6 8 9 10 11 10 8 7 7 7 7 7 8 8 nan
nan 9 9 10 10 9 8 8 9 9 9 10 10 10 10 11 12 12 11 11 12 13 12 12 12 12 13 14 13 12 12 11 11 11 10 10 10 10 9 10 11 10 9 9 11 11 10 8 9 10 11 11 8 7 6 6 7 8 10 10 10 9 8 7 8 8 9 8 nan
nan 9 9 9 7 6 6 7 8 8 8 8 8 8 9 10 11 11 10 11 13 13 11 9 10 11 13 14 15 14 14 13 13 12 11 11 11 11 10 10 11 11 10 9 9 10 11 10 9 10 10 11 11 10 8 7 8 8 8 9 9 9 9 9 8 9 9 9 nan
nan 8 8 7 5 5 5 6 5 5 6 6 7 8 9 9 8 9 10 10 10 9 9 9 10 10 11 12 14 14 15 14 13 13 12 12 12 12 12 11 11 11 12 11 9 9 9 9 8 10 10 10 11 11 11 9 9 10 9 9 9 10 11 10 9 10 11 11 nan
nan 7 7 5 5 5 6 6 5 5 5 7 8 8 8 7 6 7 8 10 9 8 8 10 11 11 11 11 11 11 13 13 12 11 11 12 13 13 12 12 12 12 12 12 11 10 9 9 8 8 9 10 10 11 11 11 10 11 11 10 10 10 11 12 10 10 11 12 nan
nan 6 5 5 6 7 7 7 6 7 8 9 8 7 6 6 6 6 7 8 9 10 11 12 12 12 12 12 10 9 10 14 12 11 10 11 12 12 13 12 12 12 12 12 12 11 10 10 9 8 8 8 9 10 10 10 10 11 11 12 11 11 11 12 11 10 10 11 nan
nan 6 7 7 8 8 7 8 8 8 8 8 7 6 6 7 8 7 7 8 9 11 12 13 12 12 12 13 11 9 9 13 13 12 11 11 12 12 12 13 13 13 13 12 12 12 11 11 10 10 9 8 8 9 9 10 10 10 10 12 13 12 11 11 11 10 10 11 nan
nan 9 9 9 9 8 7 7 8 8 7 7 7 7 8 9 9 9 9 10 11 12 12 12 12 12 12 12 12 11 9 11 13 12 12 12 13 12 12 13 13 12 12 11 12 12 12 11 11 11 11 11 10 9 9 10 11 10 8 8 11 12 11 11 10 10 10 10 nan
nan 10 10 9 8 7 7 7 7 8 8 8 8 9 9 9 9 10 10 12 12 11 11 12 13 13 13 13 13 11 9 9 11 11 11 12 12 13 13 13 13 11 11 11 12 13 13 13 12 11 11 12 12 11 10 9 10 11 10 8 9 10 11 10 10 10 10 10 nan
nan 9 9 8 7 7 7 8 8 8 8 9 9 9 9 9 10 10 11 11 10 10 11 13 14 15 14 14 14 12 10 8 10 10 10 9 10 11 12 13 13 12 10 12 12 12 12 15 16 14 13 13 14 13 12 9 9 10 11 11 10 10 10 10 10 10 10 9 nan
nan 7 6 6 6 7 8 8 8 9 9 9 9 10 9 9 10 10 11 9 9 10 10 10 11 13 15 15 15 14 13 11 10 10 10 9 9 10 10 11 13 13 11 12 9 4 0 4 11 15 15 14 14 14 14 12 10 10 11 11 10 10 10 10 10 9 10 9 nan
nan 5 4 4 5 6 7 8 8 9 9 10 10 10 10 10 10 11 10 10 10 10 10 9 10 12 13 15 15 15 15 14 13 11 10 10 9 9 9 9 11 12 12 13 11 2 -7 -13 -9 -0 9 14 14 14 14 14 12 10 10 10 10 9 11 12 11 10 10 10 nan
nan 4 5 5 6 7 8 9 10 10 10 10 10 10 10 11 11 11 10 9 10 11 12 12 13 12 13 15 15 14 13 14 14 13 11 10 10 9 7 7 9 11 13 13 13 8 2 -7 -15 -15 -8 6 12 12 12 14 15 13 11 10 10 9 10 11 12 11 10 11 nan
nan 5 6 7 8 8 9 11 11 11 10 10 10 10 11 10 9 9 9 9 11 13 14 15 15 16 17 18 16 14 12 11 12 13 12 12 11 9 8 6 7 8 10 10 10 8 8 6 -1 -10 -16 -8 6 10 11 12 14 14 14 12 12 11 10 11 12 12 11 11 nan
nan 6 7 8 9 10 11 11 10 10 11 11 11 11 11 10 9 9 9 10 11 13 15 15 16 17 17 16 15 14 13 11 11 12 13 12 12 10 8 6 7 6 7 6 6 7 8 9 9 3 -8 -17 -3 9 13 12 13 13 14 14 14 13 12 10 12 13 13 12 nan
nan 8 9 10 10 10 11 10 11 11 12 13 12 11 10 10 10 9 9 10 11 11 12 13 14 12 10 8 12 13 14 13 12 12 12 12 11 10 9 7 8 9 10 7 6 7 8 9 10 10 5 -11 -12 1 11 14 13 12 11 12 14 13 12 10 9 11 12 13 nan
nan 9 10 10 10 10 10 10 11 11 12 13 12 11 10 9 9 10 12 14 13 12 10 11 8 6 6 7 12 13 13 13 13 12 11 11 10 9 9 8 8 11 15 13 9 8 8 9 10 11 11 2 -8 -4 6 12 11 11 10 11 13 12 11 11 10 8 8 10 nan
nan 10 10 10 10 10 10 10 11 11 11 10 10 9 9 9 11 13 15 16 14 12 11 10 7 7 9 12 12 13 12 11 11 10 11 11 10 9 9 10 9 11 15 14 10 9 9 10 10 11 12 9 1 -1 4 10 10 10 9 10 12 11 11 13 14 12 9 7 nan
nan 10 10 10 10 10 10 11 11 12 11 10 10 10 10 10 12 12 12 12 12 11 11 9 9 11 13 13 12 12 12 11 10 9 9 9 10 10 10 11 12 12 14 14 10 9 9 10 11 12 12 10 6 3 4 7 11 12 13 12 12 10 7 7 12 15 14 10 nan
nan 10 10 10 10 10 10 11 12 12 12 12 12 11 11 13 11 9 9 9 11 11 11 10 11 13 13 13 12 12 12 13 13 12 10 10 10 10 9 11 14 15 15 13 10 10 10 11 11 12 13 10 9 10 9 6 8 11 14 16 15 14 10 5 6 11 14 12 nan
nan 10 10 10 10 10 11 11 12 12 11 11 11 11 11 12 8 8 9 9 10 11 12 12 13 13 12 11 11 11 11 11 13 14 14 13 12 11 9 8 10 14 13 11 10 10 10 11 12 12 13 13 13 15 14 10 7 9 11 14 14 14 13 11 9 10 12 12 nan
nan 9 9 10 10 10 10 11 11 10 10 9 10 10 10 10 9 10 11 9 9 10 11 11 12 12 11 10 11 12 11 11 12 13 13 13 13 12 10 7 6 10 11 9 9 10 10 11 12 12 13 16 15 17 17 16 12 11 11 12 13 13 13 12 11 12 12 13 nan
nan 9 9 9 10 10 10 10 10 9 8 8 10 11 12 9 12 12 12 12 11 11 10 10 10 10 10 12 11 11 13 14 13 12 13 12 12 12 12 9 9 13 14 12 9 9 9 11 11 12 12 15 14 15 15 17 17 16 15 14 15 15 14 12 11 11 12 13 nan
nan 10 10 10 10 10 10 9 8 7 7 8 12 14 15 14 14 12 11 13 11 11 11 11 9 9 9 11 9 10 12 13 13 13 12 12 11 11 11 10 12 16 19 17 12 10 10 10 11 11 10 12 10 11 12 14 15 16 17 17 18 18 16 15 15 14 13 12 nan
nan 11 11 11 10 10 9 7 6 6 7 10 14 14 14 15 14 13 12 11 11 11 11 10 10 9 8 8 10 11 12 13 13 12 12 13 12 10 10 10 12 16 20 20 15 12 11 11 11 10 6 6 8 9 11 12 12 13 14 15 18 19 16 14 16 18 18 17 nan
nan 12 12 11 10 8 6 5 6 8 10 14 13 12 12 14 12 11 11 10 12 11 10 9 10 9 8 8 10 12 13 14 15 13 12 13 12 10 8 9 11 14 18 18 16 13 12 12 12 10 5 3 7 10 11 12 12 12 11 12 14 18 17 14 14 16 21 25 nan
nan 13 12 10 8 7 6 6 9 11 13 14 12 14 16 14 11 11 12 11 12 11 10 9 9 9 8 9 10 11 12 13 14 14 13 12 12 11 11 12 12 15 18 20 18 15 13 12 12 10 6 6 9 10 10 11 12 12 10 10 11 14 15 15 14 15 18 26 nan
nan nan nan nan nan nan nan nan nan nan nan nan nan nan nan nan nan nan nan nan nan nan nan nan nan nan nan nan nan nan nan nan nan nan nan nan nan nan nan nan nan nan nan nan nan nan nan nan nan nan nan nan nan nan nan nan nan nan nan nan nan nan nan nan nan nan nan nan nan
CAPE
nan nan nan nan nan nan nan nan nan nan nan nan nan nan nan nan nan nan nan nan nan nan nan nan nan nan nan nan nan nan nan nan nan nan nan nan nan nan nan nan nan nan nan nan nan nan nan nan nan nan nan nan nan nan nan nan nan nan nan nan nan nan nan nan nan nan nan nan nan
nan nan nan nan nan nan nan nan nan nan nan nan nan nan nan nan nan nan nan nan nan nan nan nan nan nan nan nan nan nan nan nan nan nan nan nan nan nan nan nan nan nan nan nan nan nan nan nan nan nan nan nan nan nan nan nan nan nan nan nan nan nan nan nan nan nan nan nan nan
nan nan nan nan nan nan nan nan nan nan nan nan nan nan nan nan nan nan nan nan nan nan nan nan nan nan nan nan nan nan nan nan nan nan nan nan nan nan nan nan nan nan nan nan nan nan nan nan nan nan nan nan nan nan nan nan nan nan nan nan nan nan nan nan nan nan nan nan nan
nan nan nan nan nan nan nan nan nan nan nan nan nan nan nan nan nan nan nan nan nan nan nan nan nan nan nan nan nan nan nan nan nan nan nan nan nan nan nan nan nan nan nan nan nan nan nan nan nan nan nan nan nan nan nan nan nan nan nan nan nan nan nan nan nan nan nan nan nan
nan nan nan nan nan nan nan nan nan nan nan nan nan nan nan nan nan nan nan nan nan nan nan nan nan nan nan nan nan nan nan nan nan nan nan nan nan nan nan nan nan nan nan nan nan nan nan nan nan nan nan nan nan nan nan nan nan nan nan nan nan nan nan nan nan nan nan nan nan
nan nan nan nan nan nan nan nan nan nan nan nan nan nan nan nan nan nan nan nan nan nan nan nan nan nan nan nan nan nan nan nan nan nan nan nan nan nan nan nan nan nan nan nan nan nan nan nan nan nan nan nan nan nan nan nan nan nan nan nan nan nan nan nan nan nan nan nan nan
nan nan nan nan nan nan nan nan nan nan nan nan nan nan nan nan nan nan nan nan nan nan nan nan nan nan nan nan nan nan nan nan nan nan nan nan nan nan nan nan nan nan nan nan nan nan nan nan nan nan nan nan nan nan nan nan nan nan nan nan nan nan nan nan nan nan nan nan nan
nan nan nan nan nan nan nan nan nan nan nan nan nan nan nan nan nan nan nan nan nan nan nan nan nan nan nan nan nan nan nan nan nan nan nan nan nan nan nan nan nan nan nan nan nan nan nan nan nan nan nan nan nan nan nan nan nan nan nan nan nan nan nan nan nan nan nan nan nan
nan nan nan nan nan nan nan nan nan nan nan nan nan nan nan nan nan nan nan nan nan nan nan nan nan nan nan nan nan nan nan nan nan nan nan nan nan nan nan nan nan nan nan nan nan nan nan nan nan nan nan nan nan nan nan nan nan nan nan nan nan nan nan nan nan nan nan nan nan
nan nan nan nan nan nan nan nan nan nan nan nan nan nan nan nan nan nan nan nan nan nan nan nan nan nan nan nan nan nan nan nan nan nan nan nan nan nan nan nan nan nan nan nan nan nan nan nan nan nan nan nan nan nan nan nan nan nan nan nan nan nan nan nan nan nan nan nan nan
nan nan nan nan nan nan nan nan nan nan nan nan nan nan nan nan nan nan nan nan nan nan nan nan nan nan nan nan nan nan nan nan nan nan nan nan nan nan nan nan nan nan nan nan nan nan nan nan nan nan nan nan nan nan nan nan nan nan nan nan nan nan nan nan nan nan nan nan nan
nan nan nan nan nan nan nan nan nan nan nan nan nan nan nan nan nan nan nan nan nan nan nan nan nan nan nan nan nan nan nan nan nan nan nan nan nan nan nan nan nan nan nan nan nan nan nan nan nan nan nan nan nan nan nan nan nan nan nan nan nan nan nan nan nan nan nan nan nan
nan nan nan nan nan nan nan nan nan nan nan nan nan nan nan nan nan nan nan nan nan nan nan nan nan nan nan nan nan nan nan nan nan nan nan nan nan nan nan nan nan nan nan nan nan nan nan nan nan nan nan nan nan nan nan nan nan nan nan nan nan nan nan nan nan nan nan nan nan
nan nan nan nan nan nan nan nan nan nan nan nan nan nan nan nan nan nan nan nan nan nan nan nan nan nan nan nan nan nan nan nan nan nan nan nan nan nan nan nan nan nan nan nan nan nan nan nan nan nan nan nan nan nan nan nan nan nan nan nan nan nan nan nan nan nan nan nan nan
nan nan nan nan nan nan nan nan nan nan nan nan nan nan nan nan nan nan nan nan nan nan nan nan nan nan nan nan nan nan nan nan nan nan nan nan nan nan nan nan nan nan nan nan nan nan nan nan nan nan nan nan nan nan nan nan nan nan nan nan nan nan nan nan nan nan nan nan nan
nan nan nan nan nan nan nan nan nan nan nan nan nan nan nan nan nan nan nan nan nan nan nan nan nan nan nan nan nan nan nan nan nan nan nan nan nan nan nan nan nan nan nan nan nan nan nan nan nan nan nan nan nan nan nan nan nan nan nan nan nan nan nan nan nan nan nan nan nan
nan nan nan nan nan nan nan nan nan nan nan nan nan nan nan nan nan nan nan nan nan nan nan nan nan nan nan nan nan nan nan nan nan nan nan nan nan nan nan nan nan nan nan nan nan nan nan nan nan nan nan nan nan nan nan nan nan nan nan nan nan nan nan nan nan nan nan nan nan
nan nan nan nan nan nan nan nan nan nan nan nan nan nan nan nan nan nan nan nan nan nan nan nan nan nan nan nan nan nan nan nan nan nan nan nan nan nan nan nan nan nan nan nan nan nan nan nan nan nan nan nan nan nan nan nan nan nan nan nan nan nan nan nan nan nan nan nan nan
nan nan nan nan nan nan nan nan nan nan nan nan nan nan nan nan nan nan nan nan nan nan nan nan nan nan nan nan nan nan nan nan nan nan nan nan nan nan nan nan nan nan nan nan nan nan nan nan nan nan nan nan nan nan nan nan nan nan nan nan nan nan nan nan nan nan nan nan nan
nan nan nan nan nan nan nan nan nan nan nan nan nan nan nan nan nan nan nan nan nan nan nan nan nan nan nan nan nan nan nan nan nan nan nan nan nan nan nan nan nan nan nan nan nan nan nan nan nan nan nan nan nan nan nan nan nan nan nan nan nan nan nan nan nan nan nan nan nan
nan nan nan nan nan nan nan nan nan nan nan nan nan nan nan nan nan nan nan nan nan nan nan nan nan nan nan nan nan nan nan nan nan nan nan nan nan nan nan nan nan nan nan nan nan nan nan nan nan nan nan nan nan nan nan nan nan nan nan nan nan nan nan nan nan nan nan nan nan
nan nan nan nan nan nan nan nan nan nan nan nan nan nan nan nan nan nan nan nan nan nan nan nan nan nan nan nan nan nan nan nan nan nan nan nan nan nan nan nan nan nan nan nan nan nan nan nan nan nan nan nan nan nan nan nan nan nan nan nan nan nan nan nan nan nan nan nan nan
nan nan nan nan nan nan nan nan nan nan nan nan nan nan nan nan nan nan nan nan nan nan nan nan nan nan nan nan nan nan nan nan nan nan nan nan nan nan nan nan nan nan nan nan nan nan nan nan nan nan nan nan nan nan nan nan nan nan nan nan nan nan nan nan nan nan nan nan nan
nan nan nan nan nan nan nan nan nan nan nan nan nan nan nan nan nan nan nan nan nan nan nan nan nan nan nan nan nan nan nan nan nan nan nan nan nan nan nan nan nan nan nan nan nan nan nan nan nan nan nan nan nan nan nan nan nan nan nan nan nan nan nan nan nan nan nan nan nan
nan nan nan nan nan nan nan nan nan nan nan nan nan nan nan nan nan nan nan nan nan nan nan nan nan nan nan nan nan nan nan nan nan nan nan nan nan nan nan nan nan nan nan nan nan nan nan nan nan nan nan nan nan nan nan nan nan nan nan nan nan nan nan nan nan nan nan nan nan
nan nan nan nan nan nan nan nan nan nan nan nan nan nan nan nan nan nan nan nan nan nan nan nan nan nan nan nan nan nan nan nan nan nan nan nan nan nan nan nan nan nan nan nan nan nan nan 1 0 0 nan nan nan nan nan nan nan nan nan nan nan nan nan nan nan nan nan nan nan
nan nan nan nan nan nan nan nan nan nan nan nan nan nan nan nan nan nan nan nan nan nan nan nan nan nan nan nan nan nan nan nan nan nan nan nan nan nan nan nan nan nan nan nan nan nan 0 4 14 14 4 nan nan nan nan nan nan nan nan nan nan nan nan nan nan nan nan nan nan
nan nan nan nan nan nan nan nan nan nan nan nan nan nan nan nan nan nan nan nan nan nan nan nan nan nan nan nan nan nan nan nan nan nan nan nan nan nan nan nan nan nan nan nan nan nan 1 10 23 23 30 nan nan nan nan nan nan nan nan nan nan nan nan nan nan nan nan nan nan
nan nan nan nan nan nan nan nan nan nan nan nan nan nan nan nan nan nan nan nan nan nan nan nan nan nan nan nan nan nan nan nan nan nan nan nan nan nan nan nan nan nan nan nan nan nan 3 13 25 25 36 31 nan nan nan nan nan nan nan nan nan nan nan nan nan nan nan nan nan
nan nan nan nan nan nan nan nan nan nan nan nan nan nan nan nan nan nan nan nan nan nan nan nan nan nan nan nan nan nan nan nan nan nan nan nan nan nan nan nan nan nan nan nan 0 0 5 17 29 29 37 41 4 nan nan nan nan nan nan nan nan nan nan nan nan nan nan nan nan
nan nan nan nan nan nan nan nan nan nan nan nan nan nan nan nan nan nan nan nan nan nan nan nan nan nan nan nan nan nan nan nan nan nan nan nan nan nan nan nan nan nan nan nan nan nan 6 20 30 30 41 45 17 nan nan nan nan nan nan nan nan nan nan nan nan nan nan nan nan
nan nan nan nan nan nan nan nan nan nan nan nan nan nan nan nan nan nan nan nan nan nan nan nan nan nan nan nan nan nan nan nan nan nan nan nan nan nan nan nan nan nan nan nan nan nan 5 20 30 30 42 48 24 nan nan nan nan nan nan nan nan nan nan nan nan nan nan nan nan
nan nan nan nan nan nan nan nan nan nan nan nan nan nan nan nan nan nan nan nan nan nan nan nan nan nan nan nan nan nan nan nan nan nan nan nan nan nan nan nan nan nan nan nan 0 0 5 15 28 28 39 48 20 nan nan nan nan nan nan nan nan nan nan nan nan nan nan nan nan
nan nan nan nan nan nan nan nan nan nan nan nan nan nan nan nan nan nan nan nan nan nan nan nan nan nan nan nan nan nan nan nan nan nan nan nan nan nan nan nan nan nan nan nan 1 1 7 15 26 26 39 47 14 nan nan nan nan nan nan nan nan nan nan nan nan nan nan nan nan
nan nan nan nan nan nan nan nan nan nan nan nan nan nan nan nan nan nan nan nan nan nan nan nan nan nan nan nan nan nan nan nan nan nan nan nan nan nan nan nan nan nan nan nan 1 1 7 17 28 28 36 40 5 nan nan nan nan nan nan nan nan nan nan nan nan nan nan nan nan
nan nan nan nan nan nan nan nan nan nan nan nan nan nan nan nan nan nan nan nan nan nan nan nan nan nan nan nan nan nan nan nan nan nan nan nan nan nan nan nan nan nan nan nan 0 0 6 17 28 28 37 22 0 nan nan nan nan nan nan nan nan nan nan nan nan nan nan nan nan
nan nan nan nan nan nan nan nan nan nan nan nan nan nan nan nan nan nan nan nan nan nan nan nan nan nan nan nan nan nan nan nan nan nan nan nan nan nan nan nan nan nan nan nan nan nan 3 18 29 29 34 11 nan nan nan nan nan nan nan nan nan nan nan nan nan nan nan nan nan
nan nan nan nan nan nan nan nan nan nan nan nan nan nan nan nan nan nan nan nan nan nan nan nan nan nan nan nan nan nan nan nan nan nan nan nan nan nan nan nan nan nan nan nan nan nan 0 15 29 29 29 1 nan nan nan nan nan nan nan nan nan nan nan nan nan nan nan nan nan
nan nan nan nan nan nan nan nan nan nan nan nan nan nan nan nan nan nan nan nan nan nan nan nan nan nan nan nan nan nan nan nan nan nan nan nan nan nan nan nan nan nan nan nan nan nan nan 5 24 24 32 6 nan nan nan nan nan nan nan nan nan nan nan nan nan nan nan nan 10
nan nan nan nan nan nan nan nan nan nan nan nan nan nan nan nan nan nan nan nan nan nan nan nan nan nan nan nan nan nan nan nan nan nan nan nan nan nan nan nan nan nan nan nan nan nan nan 3 20 20 32 8 nan nan nan nan nan nan nan nan nan nan nan nan nan nan nan nan 19
nan nan nan nan nan nan nan nan nan nan nan nan nan nan nan nan nan nan nan nan nan nan nan nan nan nan nan nan nan nan nan nan nan nan nan nan nan nan nan nan nan nan nan nan nan nan nan 5 18 18 34 1 nan nan nan nan nan nan nan nan nan nan nan nan nan nan nan nan nan